Weather in Sretensk

Russia / Zabaykalsky Krai     52°14′46″N   117°42′42″E
temp.,
°C
wind,
m/s
gust,
m/s
humid.,
%
clouds,
%
prec.,
mm/h
press.,
hPa
HPBL,
m
8 march, mon
mon800:00−14s119025 0.0 102221
03:00−15ssw119325 0.0 102120
06:00−16s11930 0.0 101820
09:00−13sw129250 0.0 101777
12:00−7w2488100 0.0 1014371
15:00−4w389097 0.0 1011618
18:00−3w3138478 0.1 10111323
21:00−7wnw4147476 0.3 1015760
9 march, tue
tue900:00−14w23810 0.0 102038
03:00−17wsw22850 0.0 102420
06:00−19wsw22860 0.0 102820
09:00−17wsw11850 0.0 103056
12:00−9wsw12720 0.0 1028368
15:00−6ssw24748 0.0 1025627
18:00−6sw12820 0.0 102363
21:00−12sw12850 0.0 102425
10 march, wed
wed1000:00−14s1185100 0.0 102126
03:00−14sw1186100 0.0 102020
06:00−14wsw128796 0.0 102020
09:00−13wsw129395 0.0 102266
12:00−7w268880 0.0 1021485
15:00−4w268573 0.1 1021497
18:00−4wnw118814 0.0 102328
21:00−10sw11837 0.0 102721
11 march, thu
thu1100:00−12ssw11850 0.0 102821
03:00−14s12880 0.0 102824
06:00−15s129184 0.0 102826
09:00−12ssw128860 0.0 102861
12:00−4w13820 0.0 1026365
15:00−2w23870 0.0 1024374
18:00−4wnw129434 0.0 102475
21:00−6wsw119752 0.0 102721
12 march, fri
fri1200:00−7ssw129490 0.0 102824
03:00−11s229253 0.0 102730
06:00−11ssw229154 0.0 102741
09:00−8sw128735 0.0 102681
12:00−1sw25850 0.0 1023330
15:00+2sw310890 0.0 1020621
18:00+1sw211880 0.0 1018541
21:00−5sw23800 0.0 101938